Location: ????????
(55.7667°N, 37.4833°E)
Time: 07:24:00
(UTC+00:00)

SL-16 R/B - Pass Details

Date: 19 May 2025
Orbit: 841 x 846 km, 71.0° (Epoch: 23 June)

Event Time Altitude Azimuth Distance (km) Brightness Sun altitude
Rises 22:32:50 0° 322° (NW) 3,411 5.9 -13.0°
Reaches altitude 10° 22:35:32 10° 332° (NNW) 2,473 5.3 -12.9°
Maximum altitude 22:40:39 33° 36° (NE) 1,381 4.1 -12.6°
Drops below altitude 10° 22:45:44 10° 100° (E) 2,464 4.7 -12.4°
Sets 22:48:26 0° 110° (ESE) 3,396 5.3 -12.3°
